Location: Foligno
(42.9600°N, 12.7050°E)
Time: 04:37:07
(UTC+01:00)

ISS - Pass Details

Date: 22 February 2020
Orbit: 415 x 423 km, 51.6° (Epoch: 27 February)

Event Time Altitude Azimuth Distance (km) Brightness Sun altitude
Exits shadow 05:06:47 - 174° (S) 1,737 -0.6 -20.9°
Reaches altitude 10° 05:07:47 10° 162° (SSE) 1,491 -0.8 -20.8°
Maximum altitude 05:09:29 13° 131° (SE) 1,304 -0.7 -20.4°
Drops below altitude 10° 05:11:12 10° 100° (E) 1,499 0.2 -20.1°
Sets 05:14:07 0° 73° (ENE) 2,370 1.5 -19.6°
